Change the Weather History Date:

Sunday, December 30, 2012

  Actual Average Record
Temperature  
Mean Temperature 28 °F -  
Max Temperature 30 °F 28 °F 48 °F (2011)
Min Temperature 25 °F 19 °F -4 °F (1996)
Degree Days  
Heating Degree Days 38    
Moisture  
Dew Point 25 °F    
Average Humidity 86    
Maximum Humidity 100    
Minimum Humidity 71    
Precipitation  
Precipitation 0.00 in - - ()
Sea Level Pressure  
Sea Level Pressure 30.34 in    
Wind  
Wind Speed 3 mph ()    
Max Wind Speed 10 mph    
Max Gust Speed -    
Averages and records for this station are not official NWS values.
T = Trace of Precipitation, MM = Missing Value Source: Averaged Metar Reports

Daily Weather History Graph

Daily Weather History Graph

Search for Another Location

Airport or City:

Trip Planner

Search our weather history database for the weather conditions in past years. The results will help you decide how hot, cold, wet, or windy it might be!

Date:

Astronomy

Dec. 30, 2012 Rise Set
Actual Time 8:03 AM PST 4:05 PM PST
Civil Twilight 7:24 AM PST 4:44 PM PST
Nautical Twilight 6:42 AM PST 5:27 PM PST
Astronomical Twilight 6:02 AM PST 6:07 PM PST
Moon 7:00 PM PST (12/30) 8:59 AM PST (12/30)
Length of Visible Light 9h 20m
Length of Day
8h 02m
Waning Gibbous, 95% of the Moon is Illuminated
Dec 30
Waning Gibbous
Jan 4
Last Quarter
Jan 11
New
Jan 18
First Quarter
Jan 26
Full

Hourly Weather History & Observations

Time (PST) Temp. Windchill Dew Point Humidity Pressure Visibility Wind Dir Wind Speed Gust Speed Precip Events Conditions
12:00 AM 28.4 °F - 26.6 °F 93% 30.30 in 40.0 mi Calm Calm - N/A   Mostly Cloudy
1:00 AM 28.4 °F 24.6 °F 28.4 °F 100% 30.31 in 40.0 mi SE 3.5 mph - N/A   Mostly Cloudy
2:00 AM 28.4 °F - 26.6 °F 93% 30.32 in 40.0 mi Calm Calm - N/A   Overcast
3:00 AM 30.2 °F - 26.6 °F 86% 30.33 in 40.0 mi West 2.3 mph - N/A   Overcast
4:00 AM 29 °F - 26 °F 83% 30.32 in 37 mi Calm Calm - -   Overcast
4:00 AM 28.4 °F - 26.6 °F 93% 30.32 in 40.0 mi Calm Calm - N/A   Overcast
5:00 AM 30.2 °F 24.3 °F 26.6 °F 86% 30.33 in 40.0 mi West 5.8 mph - N/A   Overcast
6:00 AM 28.4 °F 23.3 °F 26.6 °F 93% 30.34 in 40.0 mi West 4.6 mph - N/A   Overcast
7:00 AM 30.2 °F 24.3 °F 26.6 °F 86% 30.34 in 40.0 mi West 5.8 mph - N/A   Overcast
8:00 AM 28.4 °F 22.2 °F 24.8 °F 86% 30.35 in 40.0 mi WNW 5.8 mph - N/A   Overcast
9:00 AM 28.4 °F 21.2 °F 24.8 °F 86% 30.37 in 40.0 mi West 6.9 mph - N/A   Mostly Cloudy
10:00 AM 29 °F - 23 °F 71% 30.38 in 37 mi WNW 9.2 mph - -   Mostly Cloudy
10:00 AM 28.4 °F 19.7 °F 23.0 °F 80% 30.38 in 40.0 mi West 9.2 mph - N/A   Mostly Cloudy
11:00 AM 28.4 °F 19.1 °F 24.8 °F 86% 30.37 in 40.0 mi West 10.4 mph - N/A   Mostly Cloudy
12:00 PM 30.2 °F 23.4 °F 23.0 °F 75% 30.35 in 40.0 mi West 6.9 mph - N/A   Mostly Cloudy
1:00 PM 30.2 °F 22.6 °F 24.8 °F 80% 30.35 in 40.0 mi West 8.1 mph - N/A   Overcast
2:00 PM 28.4 °F 22.2 °F 24.8 °F 86% 30.35 in 40.0 mi WNW 5.8 mph - N/A   Mostly Cloudy
3:00 PM 30.2 °F 25.4 °F 23.0 °F 75% 30.36 in 40.0 mi West 4.6 mph - N/A   Overcast
4:00 PM 29 °F - 24 °F 73% 30.35 in 37 mi West 2.3 mph - -   Overcast
4:00 PM 28.4 °F - 23.0 °F 80% 30.35 in 40.0 mi West 2.3 mph - N/A   Overcast
5:00 PM 28.4 °F - 24.8 °F 86% 30.34 in 40.0 mi Calm Calm - N/A   Overcast
6:00 PM 26.6 °F - 24.8 °F 93% 30.35 in 40.0 mi North 2.3 mph - N/A   Overcast
7:00 PM 28.4 °F - 24.8 °F 86% 30.34 in 40.0 mi SSW 2.3 mph - N/A   Overcast
8:00 PM 26.6 °F 21.2 °F 24.8 °F 93% 30.32 in 40.0 mi East 4.6 mph - N/A   Overcast
9:00 PM 28.4 °F - 24.8 °F 86% 30.34 in 40.0 mi NE 2.3 mph - N/A   Overcast
10:00 PM 28 °F - 25 °F 82% 30.33 in 37 mi NE 9.2 mph - -   Overcast
10:00 PM 28.4 °F 22.2 °F 24.8 °F 86% 30.33 in 40.0 mi NE 5.8 mph - N/A   Overcast
11:00 PM 26.6 °F 16.8 °F 24.8 °F 93% 30.34 in 40.0 mi East 10.4 mph - N/A   Overcast